weather.gov     
National Weather Service

Terminal Aerodrome Forecast
NWS Homepage
This page is being discontinued on March 12, 2014.
The same data is available at this site. Please update your bookmarks.
Thank you, and we apologize for the inconvenience.
Please send an email to SR-SRH.Webmaster@noaa.gov with any concerns.


Current Version
Previous Version:    01  02  03  04  05  06  07  08  09  10  11  12  13  14  15  16  17  18  19  20  21  22  23  24  25  26  27  
[Printable]
193
FTUS45 KREV 291700
TAFMMH
TAF
KMMH 291733Z 2918/3018 12008KT P6SM VCSH SCT070 OVC110
     FM292100 22010G18KT P6SM VCTS SCT070 BKN100CB
     FM300200 30007KT P6SM SCT070 SCT120
     FM301200 VRB04KT P6SM VCSH SCT045 BKN070=


U.S. Dept. of Commerce
NOAA National Weather Service
1325 East West Highway
Silver Spring, MD 20910
E-mail: w-nws.webmaster@noaa.gov
Page last modified: May 16, 2007
NATIONAL WEATHER SERVICE: for Safety, for Work, for Fun - FOR LIFE